Back to catalog

METEOR 2-11 DEB

AlivePO
NORAD 60006·DEBRIS·🇷🇺 Russia

Launched Jul 5, 1984 from Plesetsk Cosmodrome

Loading…

Next Passes (next 24 hours)

TLE

AgingSource: Space-Track

Epoch: Sep 5, 2026, 10:47 UTC

1 60006U 84072AB  26248.44999367  .00000593  00000-0  39800-3 0  9996
2 60006  82.5572 302.7521 0018702  34.0213 326.2150 13.99200278441924

Track METEOR 2-11 DEB in real time with AllMySat

Download on the App Store